Orbital Elements at Epoch 2459200.5 (2020-Dec-17.0) TDB
Reference: JPL 22 (heliocentric ecliptic J2000)
Element | Value | Uncertainty (1-sigma) | Units |
e | .07523276963961766 | 3.036e-08 | |
a | 2.61171207640153 | 1.2279e-08 | au |
q | 2.415225743392606 | 8.0906e-08 | au |
i | 1.360048464558812 | 4.639e-06 | deg |
node | 310.0780156910703 | 0.00017188 | deg |
peri | 127.8849979547038 | 0.00017717 | deg |
M | 22.6482439270224 | 4.0377e-05 | deg |
tp | 2459103.511910231247 (2020-Sep-11.01191023) | 0.00017296 | TDB |
period | 1541.652078159231 4.22 | 1.0872e-05 2.977e-08 | d yr |
n | .2335157232297501 | 1.6468e-09 | deg/d |
Q | 2.808198409410454 | 1.3203e-08 | au |
|
| | Orbit Determination Parameters
Additional Information
|